User: anonymous   Login
Location: Lake Superior Provincial Park
(47.3335°N, 84.6162°W)
Time: 10:16:11
(UTC-05:00)
Language:

Cosmos 2333 Rocket - Orbit

View from above orbital plane
View from above orbital plane
View from above satellite
View from above satellite

Ground track
Ground track

The orbit data is extracted from the following two-line orbital elements,

1 24298U 96051B   18015.95920107 -.00000179 +00000-0 -70215-4 0  9992
2 24298 070.8449 333.6847 0018389 229.9566 129.9942 14.12472258101601
Epoch (UTC): 15 January 2018 23:01:14
Eccentricity: 0.0018389
inclination: 70.8449°
perigee height: 837 km
apogee height: 864 km
right ascension of ascending node: 333.6847°
argument of perigee: 229.9566°
revolutions per day: 14.12472258
mean anomaly at epoch: 129.9942°
orbit number at epoch: 10160

The dashed part of the orbit path shows where the satellite is in the earth's shadow,  

DLR